GW5385 Weather Reports


Display with metric or nautical units.
time (UTC)temp
F
wind
direction
speed
MPH
gust
MPH
rain 1hr
in
rain 24hr
in
rain mn
in
humidity
%
barometer
mb
20260502203031 64 348 6.0 10.0 0.00 0.00 0.00 40 1020.5
20260502201534 64 332 4.0 10.0 0.00 0.00 0.00 40 1020.7
20260502200027 63 51 5.0 14.0 0.00 0.00 0.00 42 1020.9
20260502194522 62 71 6.0 12.0 0.00 0.00 0.00 43 1021.2
20260502193022 59 71 7.0 10.0 0.00 0.00 0.00 45 1021.4
20260502191521 59 79 7.0 10.0 0.00 0.00 0.00 45 1021.5
20260502190026 59 73 6.0 11.0 0.00 0.00 0.00 45 1021.6
20260502184619 59 69 8.0 13.0 0.00 0.00 0.00 45 1021.7
20260502183051 59 83 5.0 9.0 0.00 0.00 0.00 45 1021.7
20260502181552 60 53 6.0 11.0 0.00 0.00 0.00 44 1021.7
20260502163045 61 64 12.0 17.0 0.00 0.00 0.00 40 1021.7
20260502161557 62 64 10.0 17.0 0.00 0.00 0.00 42 1021.7
20260502151529 59 51 11.0 16.0 0.00 0.00 0.00 44 1021.7
20260502130116 48 40 4.0 7.0 0.00 0.00 0.00 56 1021.0
20260502123121 47 32 5.0 10.0 0.00 0.00 0.00 57 1020.8
20260502121551 45 20 5.0 7.0 0.00 0.00 0.00 59 1020.8
20260502114547 47 33 5.0 10.0 0.00 0.00 0.00 55 1020.5
20260502113041 48 39 7.0 13.0 0.00 0.00 0.00 54 1020.3
20260502111537 49 33 11.0 14.0 0.00 0.00 0.00 52 1020.1
20260502110044 50 25 11.0 16.0 0.00 0.00 0.00 51 1019.8
20260502104528 50 24 9.0 13.0 0.00 0.00 0.00 50 1019.5
20260502103028 50 17 8.0 12.0 0.00 0.00 0.00 50 1019.3
20260502101524 50 25 8.0 11.0 0.00 0.00 0.00 49 1019.0
20260502091513 51 43 5.0 13.0 0.00 0.00 0.00 44 1018.2
20260502071529 47 250 0.0 3.0 0.00 0.00 0.00 47 1017.4
20260502070025 49 286 1.0 3.0 0.00 0.00 0.00 44 1017.4
20260502064525 48 245 0.0 3.0 0.00 0.00 0.00 45 1017.4
20260502063019 48 305 2.0 4.0 0.00 0.00 0.00 45 1017.3
20260502061517 49 323 1.0 5.0 0.00 0.00 0.00 44 1017.4
20260502060013 47 4 2.0 7.0 0.00 0.00 0.00 46 1017.4
20260502054521 48 308 1.0 4.0 0.00 0.00 0.00 44 1017.3
20260502053011 49 319 2.0 4.0 0.00 0.00 0.00 43 1017.3
20260502051518 49 330 0.0 3.0 0.00 0.00 0.00 42 1017.3
20260502050027 48 302 1.0 3.0 0.00 0.00 0.00 41 1017.3
20260502044509 49 295 1.0 3.0 0.00 0.00 0.00 40 1017.2
20260502043009 50 290 0.0 2.0 0.00 0.00 0.00 38 1017.2
20260502041546 50 290 1.0 3.0 0.00 0.00 0.00 37 1017.2
20260502040038 51 301 2.0 4.0 0.00 0.00 0.00 35 1017.1
20260502034535 52 306 1.0 4.0 0.00 0.00 0.00 34 1016.9
20260502033043 55 307 0.0 2.0 0.00 0.00 0.00 32 1016.8
20260502031534 58 297 0.0 3.0 0.00 0.00 0.00 29 1016.7
20260502030034 59 293 1.0 3.0 0.00 0.00 0.00 28 1016.4
20260502024531 61 275 0.0 3.0 0.00 0.00 0.00 26 1016.3
20260502023031 63 293 1.0 4.0 0.00 0.00 0.00 25 1016.2
20260502021530 64 264 2.0 4.0 0.00 0.00 0.00 24 1016.2
20260502020030 66 269 1.0 3.0 0.00 0.00 0.00 22 1016.0
20260502014531 68 282 1.0 3.0 0.00 0.00 0.00 21 1016.0
20260502013026 70 260 2.0 5.0 0.00 0.00 0.00 19 1016.0
20260502011525 72 254 4.0 8.0 0.00 0.00 0.00 18 1016.1
20260502010030 73 243 1.0 7.0 0.00 0.00 0.00 22 1016.2
20260502004541 74 14 2.0 7.0 0.00 0.00 0.00 21 1016.2
20260502003020 74 304 0.0 7.0 0.00 0.00 0.00 22 1016.3
20260502001519 74 21 4.0 9.0 0.00 0.00 0.00 21 1016.4
20260502000018 74 281 3.0 10.0 0.00 0.00 0.00 22 1016.4
20260501234513 74 9 0.0 4.0 0.00 0.00 0.00 21 1016.6
20260501233012 74 283 2.0 7.0 0.00 0.00 0.00 22 1016.7
20260501231516 73 16 3.0 9.0 0.00 0.00 0.00 22 1016.8
20260501230010 74 21 5.0 12.0 0.00 0.00 0.00 21 1017.0
20260501224506 74 269 2.0 6.0 0.00 0.00 0.00 21 1017.1
20260501223009 74 287 2.0 9.0 0.00 0.00 0.00 21 1017.2
20260501221504 73 295 3.0 10.0 0.00 0.00 0.00 22 1017.3
20260501220003 74 270 8.0 11.0 0.00 0.00 0.00 21 1017.3
20260501214559 74 274 5.0 14.0 0.00 0.00 0.00 20 1017.6
20260501213058 74 300 6.0 10.0 0.00 0.00 0.00 20 1017.7
20260501211604 74 306 3.0 10.0 0.00 0.00 0.00 23 1017.9
20260501210058 74 299 1.0 9.0 0.00 0.00 0.00 22 1017.9
20260501204526 74 295 5.0 11.0 0.00 0.00 0.00 21 1018.1